User: anonymous   Login
Location: Göttingen
(51.5413°N, 9.9158°E)
Time: 04:21:48
(UTC+02:00)
Language:

Envisat - Orbit

View from above orbital plane
View from above orbital plane
View from above satellite
View from above satellite

Ground track
Ground track

The orbit data is extracted from the following two-line orbital elements,

1 27386U 02009A   22148.56562031  .00000176  00000-0  71545-4 0  9992
2 27386  98.1823 130.6072 0001268  86.9802  23.2371 14.38126072 60602
Epoch (UTC): 28 May 2022 13:34:29
Eccentricity: 0.0001268
inclination: 98.1823°
perigee height: 764 km
apogee height: 765 km
right ascension of ascending node: 130.6072°
argument of perigee: 86.9802°
revolutions per day: 14.38126072
mean anomaly at epoch: 23.2371°
orbit number at epoch: 6060

The dashed part of the orbit path shows where the satellite is in the earth's shadow,  

DLR